This demonstration page uses our WeatherBlox Daily Observations layout. Learn more.

Left ArrowRight Arrow

Hourly Observations for January 10, 2022

Temp ( °F °C ) Dew Point ( °F °C ) Humidity (%) Winds ( mph kmh ) Pressure ( in mb ) Visibility ( mi km ) Precip ( " mm )
12:52 am 00:52 Clear 25 -3.9 11 -11.7 55 55 VRB 5 7 30.54 1034 10 16 0.00 0.00
1:52 am 01:52 Clear 18 -7.8 9 -12.8 68 68 SSE 5 7 30.53 1034 10 16 0.00 0.00
2:52 am 02:52 Clear 22 -5.6 11 -11.7 63 63 WSW 3 6 30.54 1034 10 16 0.00 0.00
3:52 am 03:52 Clear 17 -8.3 10 -12.2 74 74 Calm 30.54 1034 10 16 0.00 0.00
4:52 am 04:52 Clear 17 -8.3 10 -12.2 74 74 NNW 5 7 30.54 1034 10 16 0.00 0.00
5:52 am 05:52 Clear 16 -8.9 11 -11.7 80 80 N 9 15 30.59 1036 10 16 0.00 0.00
6:52 am 06:52 Clear 15 -9.4 8 -13.3 74 74 N 9 15 30.61 1037 10 16 0.00 0.00
7:52 am 07:52 Partly Cloudy 14 -10 6 -14.4 71 71 NNE 8 13 30.63 1037 10 16 0.00 0.00
8:52 am 08:52 Mostly Sunny 16 -8.9 7 -13.9 67 67 N 9 15 30.66 1038 10 16 0.00 0.00
9:52 am 09:52 Mostly Sunny 18 -7.8 7 -13.9 62 62 NNW 6 9 30.68 1039 10 16 0.00 0.00
10:52 am 10:52 Mostly Sunny 23 -5 7 -13.9 50 50 Calm 30.66 1038 10 16 0.00 0.00
11:52 am 11:52 Mostly Sunny 27 -2.8 5 -15 39 39 Calm 30.64 1038 10 16 0.00 0.00
12:52 pm 12:52 Mostly Sunny 29 -1.7 7 -13.9 39 39 Calm 30.61 1037 10 16 0.00 0.00
1:52 pm 13:52 Mostly Sunny 31 -0.6 8 -13.3 38 38 VRB 3 6 30.58 1036 10 16 0.00 0.00
2:52 pm 14:52 Mostly Sunny 31 -0.6 8 -13.3 38 38 VRB 5 7 30.58 1036 10 16 0.00 0.00
3:52 pm 15:52 Sunny 33 0.6 8 -13.3 35 35 Calm 30.59 1036 10 16 0.00 0.00
4:52 pm 16:52 Sunny 29 -1.7 10 -12.2 45 45 SE 7 11 30.57 1035 10 16 0.00 0.00
5:52 pm 17:52 Clear 27 -2.8 10 -12.2 49 49 SE 8 13 30.57 1035 10 16 0.00 0.00
6:52 pm 18:52 Clear 23 -5 10 -12.2 57 57 SE 9 15 30.54 1034 10 16 0.00 0.00
7:52 pm 19:52 Clear 21 -6.1 11 -11.7 65 65 SE 9 15 30.53 1034 10 16 0.00 0.00
8:52 pm 20:52 Clear 24 -4.4 11 -11.7 57 57 SSE 12 19 30.50 1033 10 16 0.00 0.00
9:52 pm 21:52 Mostly Clear 24 -4.4 12 -11.1 60 60 SE 9 15 30.50 1033 10 16 0.00 0.00
10:52 pm 22:52 Mostly Clear 23 -5 12 -11.1 63 63 SE 12 19 30.48 1032 10 16 0.00 0.00
11:52 pm 23:52 Mostly Clear 22 -5.6 12 -11.1 66 66 SSE 15 24 30.45 1031 10 16 0.00 0.00

Powered by AerisWeather